This is the latest recevied weather packets stored in our database for station/object K8JCL-13. If no packets are shown the sender has not sent any weather packets the latest 10 day(s).
| Time | Temp. | Humidity | Pressure | Rain* | Wind** | Luminosity | Snow |
|---|---|---|---|---|---|---|---|
| 1778009505 | 17.78° C | 83% | 1008.4 hPa | 0 mm | - | 22 W/m² | - |
| 1778009204 | 18.33° C | 81% | 1008.4 hPa | 0 mm | - | 23 W/m² | - |
| 1778008901 | 18.33° C | 81% | 1008.4 hPa | 0 mm | - | 24 W/m² | - |
| 1778008599 | 18.33° C | 81% | 1008.5 hPa | 0 mm | - | 33 W/m² | - |
| 1778008297 | 18.89° C | 79% | 1008.5 hPa | 0 mm | - | 31 W/m² | - |
| 1778007993 | 18.89° C | 80% | 1008.4 hPa | 0 mm | - | 42 W/m² | - |
| 1778007688 | 19.44° C | 78% | 1008.5 hPa | 0 mm | - | 56 W/m² | - |
| 1778007385 | 19.44° C | 78% | 1008.7 hPa | 0 mm | - | 73 W/m² | - |
| 1778007081 | 18.89° C | 79% | 1008.7 hPa | 0 mm | - | 176 W/m² | - |
| 1778006778 | 18.89° C | 79% | 1008.7 hPa | 0 mm | - | 107 W/m² | - |
| 1778006474 | 18.89° C | 78% | 1008.9 hPa | 0 mm | - | 118 W/m² | - |
| 1778006171 | 18.89° C | 77% | 1008.9 hPa | 0 mm | - | 83 W/m² | - |
| 1778005869 | 19.44° C | 76% | 1008.6 hPa | 0 mm | - | 46 W/m² | - |
| 1778005565 | 19.44° C | 75% | 1008.9 hPa | 0 mm | - | 107 W/m² | - |
| 1778005262 | 20° C | 76% | 1008.9 hPa | 0 mm | - | 139 W/m² | - |
| 1778004959 | 19.44° C | 75% | 1009 hPa | 0 mm | - | 173 W/m² | - |
| 1778004656 | 19.44° C | 76% | 1009 hPa | 0 mm | - | 184 W/m² | - |
| 1778004351 | 19.44° C | 76% | 1009.2 hPa | 0 mm | - | 163 W/m² | - |
| 1778004049 | 19.44° C | 76% | 1009.1 hPa | 0 mm | - | 176 W/m² | - |
| 1778003744 | 19.44° C | 76% | 1009.1 hPa | 0 mm | - | 177 W/m² | - |
| 1778003441 | 18.89° C | 78% | 1009.2 hPa | 0 mm | - | 220 W/m² | - |
| 1778003138 | 18.33° C | 79% | 1009.2 hPa | 0 mm | - | 84 W/m² | - |
| 1778002834 | 18.33° C | 78% | 1009 hPa | 0 mm | - | 82 W/m² | - |
| 1778002531 | 18.33° C | 78% | 1009.1 hPa | 0 mm | - | 62 W/m² | - |
| 1778002228 | 18.89° C | 77% | 1009.6 hPa | 0 mm | - | 52 W/m² | - |
* Rain latest hour (hover to see other rain measurements)
** Current wind speed in m/s (hover to see current wind gust speed)